Other Public Products
Issued by NWS Charleston, SC

Current Version | Previous Version | Graphics & Text | Print | Product List | Glossary On
Versions: 1 2 3 4 5 6 7 8 9 10 11 12 13 14 15 16 17 18 19 20 21 22 23 24 25 26 27 28 29 30 31 32 33 34 35 36 37 38 39 40 41 42 43 44 45 46 47 48 49 50
527
FPUS82 KCHS 191212
OPUCHS

TEST...KCHS/KSAV Gateway Observations...TEST
National Weather Service Charleston SC
700 AM EST THU JAN 19 2017

NOTE: "fair" indicates few or no clouds below 12,000 feet with no
significant weather and/or obstructions to visibility.

SCZ050-WAZ558-NCZ071-TXZ119-213-PAZ071-DCZ001-FLZ074-172-MI076-
NYZ176-178-MAZ016-IL014-TNZ027-NJZ106-GAZ044-MD014-191300-
...Gateway Observations for Charleston International...

CITY           SKY/WX    TMP DP  RH WIND       PRES   REMARKS
Chas Airport   PTCLDY    50  49  96 N3        30.03R
6HR MIN TEMP:  50; 6HR MAX TEMP:  60;

Seattle        LGT RAIN  44  41  89 S8        29.47R
6HR MIN TEMP:  43; 6HR MAX TEMP:  49; 6HR PCP:  0.07;

Charlotte      CLOUDY    36  32  85 CALM      30.10R
6HR MIN TEMP:  36; 6HR MAX TEMP:  50;

Dallas DFW     FOG       48  48 100 S5        29.83F VSB 1/8
6HR MIN TEMP:  48; 6HR MAX TEMP:  53;

Dallas Love    CLOUDY    49  47  93 S5        29.85F
6HR MIN TEMP:  49; 6HR MAX TEMP:  53;

Philladelphia  MOCLDY    45  36  70 W8        30.06S
6HR MIN TEMP:  44; 6HR MAX TEMP:  46;

Wash National  CLOUDY    46  37  71 N6        30.10R
6HR MIN TEMP:  41; 6HR MAX TEMP:  47;

Baltimore      CLOUDY    43  36  76 W6        30.08R
6HR MIN TEMP:  43; 6HR MAX TEMP:  46;

Miami          MOCLDY    66  61  84 W5        30.07S
6HR MIN TEMP:  66; 6HR MAX TEMP:  70;

Detroit        CLOUDY    34  31  88 SW12      30.09R WCI  25
6HR MIN TEMP:  33; 6HR MAX TEMP:  34;

Newark         PTCLDY    39  36  89 W5        30.04R WCI  36
6HR MIN TEMP:  37; 6HR MAX TEMP:  41; 6HR PCP: TRACE;

Laguardia      CLOUDY    43  36  76 NW6       30.03R
6HR MIN TEMP:  41; 6HR MAX TEMP:  44;

J F K          PTCLDY    38  34  85 SW7       30.04R WCI  33
6HR MIN TEMP:  37; 6HR MAX TEMP:  41;

Boston Logan   CLOUDY    33  31  92 SE3       30.00F
6HR MIN TEMP:  31; 6HR MAX TEMP:  33;

Ft. Lauderdale MOCLDY    64  62  93 W3        30.06S
6HR MIN TEMP:  63; 6HR MAX TEMP:  68;

Chicago O`Hare CLOUDY    33  33 100 S3        30.00F FOG
6HR MIN TEMP:  30; 6HR MAX TEMP:  34;

Chicago Midway CLOUDY    33  31  92 S7        30.02F FOG     WCI  27
6HR MIN TEMP:  32; 6HR MAX TEMP:  33;

Houston Bush   CLOUDY    56  53  90 CALM      29.89F
6HR MIN TEMP:  55; 6HR MAX TEMP:  57; 6HR PCP:  0.01;

Houston Hobby  CLOUDY    56  55  97 NW3       29.89F
6HR MIN TEMP:  56; 6HR MAX TEMP:  58; 6HR PCP:  0.01;

Nashville      CLOUDY    47  45  93 NE5       30.02S
6HR MIN TEMP:  46; 6HR MAX TEMP:  48; 6HR PCP: TRACE;

Atlanta        CLOUDY    56  52  86 CALM      30.04R
6HR MIN TEMP:  54; 6HR MAX TEMP:  58;


$$

GAZ044-118-TXZ119-213-NCZ071-DCZ001-MDZ014-506-PAZ021-071-NJZ106-
NYZ176-178-MAZ106-OHZ011-021-055-MIZ076-KYZ091-ILZ014-INZ047-
MNZ060-191300-
...Gateway Observations for Savannah International...

CITY           SKY/WX    TMP DP  RH WIND       PRES   REMARKS
Savannah Arpt  PTCLDY    55  54  96 CALM      30.04S
6HR MIN TEMP:  55; 6HR MAX TEMP:  61;

Atlanta        CLOUDY    56  52  86 CALM      30.04R
6HR MIN TEMP:  54; 6HR MAX TEMP:  58;

Charlotte      CLOUDY    36  32  85 CALM      30.10R
6HR MIN TEMP:  36; 6HR MAX TEMP:  50;

Dallas DFW     FOG       48  48 100 S5        29.83F VSB 1/8
6HR MIN TEMP:  48; 6HR MAX TEMP:  53;

Houston Bush   CLOUDY    56  53  90 CALM      29.89F
6HR MIN TEMP:  55; 6HR MAX TEMP:  57; 6HR PCP:  0.01;

Wash National  CLOUDY    46  37  71 N6        30.10R
6HR MIN TEMP:  41; 6HR MAX TEMP:  47;

Wash Dulles    CLOUDY    43  35  73 NW3       30.09R
6HR MIN TEMP:  37; 6HR MAX TEMP:  45;

Baltimore      CLOUDY    43  36  76 W6        30.08R
6HR MIN TEMP:  43; 6HR MAX TEMP:  46;

Philadelphia   MOCLDY    45  36  70 W8        30.06S
6HR MIN TEMP:  44; 6HR MAX TEMP:  46;

Newark         PTCLDY    39  36  89 W5        30.04R WCI  36
6HR MIN TEMP:  37; 6HR MAX TEMP:  41; 6HR PCP: TRACE;

Laguardia      CLOUDY    43  36  76 NW6       30.03R
6HR MIN TEMP:  41; 6HR MAX TEMP:  44;

J F K          PTCLDY    38  34  85 SW7       30.04R WCI  33
6HR MIN TEMP:  37; 6HR MAX TEMP:  41;

Boston         CLOUDY    33  31  92 SE3       30.00F
6HR MIN TEMP:  31; 6HR MAX TEMP:  33;

Pittsburg      CLOUDY    38  35  89 W10       30.08S WCI  31
6HR MIN TEMP:  37; 6HR MAX TEMP:  38; 6HR PCP: TRACE;

Akron          CLOUDY    37  33  85 SW9       30.08R FOG     WCI  30
6HR MIN TEMP:  37; 6HR MAX TEMP:  37;

Cleveland      CLOUDY    39  33  79 SW12      30.11R WCI  32
6HR MIN TEMP:  38; 6HR MAX TEMP:  39; 6HR PCP: TRACE;

Cincinnati     CLOUDY    37  36  96 E7        30.07F WCI  32
6HR MIN TEMP:  36; 6HR MAX TEMP:  39;

Columbus         N/A     37  37  98 W3        30.10F
Detroit        CLOUDY    34  31  88 SW12      30.09R WCI  25
6HR MIN TEMP:  33; 6HR MAX TEMP:  34;

Chicago O`Hare CLOUDY    33  33 100 S3        30.00F FOG
6HR MIN TEMP:  30; 6HR MAX TEMP:  34;

Minneapolis    CLEAR     32  29  88 VRB5      29.82R WCI  27
6HR MIN TEMP:  29; 6HR MAX TEMP:  34;

Indianapolis   CLOUDY    35  34  96 E3        30.07R
6HR MIN TEMP:  35; 6HR MAX TEMP:  37;


$$




USA.gov is the U.S. government's official web portal to all federal, state and local government web resources and services.